STAR ONE D1

Last updated on Wed Sep 17 2025 00:02:49 GMT+0000 (Coordinated Universal Time)

1 41904U 16082B 25259.55044721 -.00000230 00000+0 00000+0 0 9990 2 41904 0.0209 111.0168 0001371 34.0026 324.8941 1.00270607 32038
UTC large
Height (km)
Speed (km/s)
/
Latitude / Longitude
Inclination (degrees)
Orbital Period (minutes)
Azimuth
Elevation
Range (km)
Doppler Factor

Next 0 passes for location: London (51.5072 / 0.1276)

Sorry there are no passes over London.